Location: Sungai Kamana Besar
(2.6333°N, 113.4333°E)
Time: 10:59:24
(UTC+00:00)

Tiangong - Visible Passes

Search period start: 09 August 2022 00:00
Search period end: 19 August 2022 00:00
Orbit: 379 x 387 km, 41.5° (Epoch: 08 August)

Date Brightness Start Highest point End Pass type
(mag) Time Alt. Az. Time Alt. Az. Time Alt. Az.
09 Aug -0.1 11:25:25 10° S 11:26:39 14° SSE 11:26:39 14° SSE visible
10 Aug -1.6 12:00:40 10° SW 12:03:21 56° W 12:03:21 56° W visible
11 Aug -1.6 11:00:39 10° SSW 11:03:36 38° SE 11:06:31 10° ENE visible
12 Aug 0.4 11:37:30 10° W 11:40:02 23° NW 11:42:34 10° NNE visible
12 Aug 0.8 21:30:01 10° N 21:32:14 18° NE 21:34:28 10° E visible
14 Aug -1.2 21:07:04 27° NNW 21:08:26 46° NE 21:11:28 10° ESE visible
15 Aug -0.6 21:43:44 17° WSW 21:44:48 20° SW 21:47:11 10° S visible
